FW6819 Weather Reports


time (UTC)temp
C
wind
direction
speed
KPH
gust
KPH
rain 1hr
cm
rain 24hr
cm
rain mn
cm
humidity
%
barometer
mb
20260504235141 22 113 1.6 3.2 0.00 0.00 0.00 43 1010.9
20260504234638 22 112 1.6 3.2 0.00 0.00 0.00 43 1010.7
20260504234136 22 108 0.0 0.0 0.00 0.00 0.00 43 1010.8
20260504233631 22 106 0.0 1.6 0.00 0.00 0.00 42 1010.9
20260504233127 23 103 6.4 9.7 0.00 0.00 0.00 41 1010.7
20260504232625 23 98 0.0 0.0 0.00 0.00 0.00 40 1010.8
20260504232122 23 90 0.0 0.0 0.00 0.00 0.00 41 1010.7
20260504231618 23 70 1.6 1.6 0.00 0.00 0.00 41 1010.6
20260504231115 24 33 1.6 3.2 0.00 0.00 0.00 39 1010.7
20260504230611 23 4 0.0 1.6 0.00 0.00 0.00 40 1010.7
20260504230110 24 346 3.2 3.2 0.00 0.00 0.00 39 1010.8
20260504225607 24 330 0.0 0.0 0.00 0.00 0.00 39 1010.7
20260504225104 24 322 1.6 3.2 0.00 0.00 0.00 39 1010.7
20260504224600 25 315 4.8 9.7 0.00 0.00 0.00 38 1010.6
20260504224057 25 317 1.6 3.2 0.00 0.00 0.00 38 1010.5
20260504223554 25 317 1.6 1.6 0.00 0.00 0.00 38 1010.9
20260504223050 25 317 6.4 8.0 0.00 0.00 0.00 36 1010.9
20260504222547 25 317 1.6 3.2 0.00 0.00 0.00 36 1010.6
20260504222044 25 319 3.2 3.2 0.00 0.00 0.00 37 1010.6
20260504221542 26 321 1.6 4.8 0.00 0.00 0.00 36 1010.7
20260504221038 25 317 0.0 0.0 0.00 0.00 0.00 35 1010.4
20260504220535 26 315 6.4 9.7 0.00 0.00 0.00 35 1010.5
20260504220032 26 317 3.2 4.8 0.00 0.00 0.00 35 1010.5
20260504215528 26 317 0.0 0.0 0.00 0.00 0.00 37 1010.4
20260504215026 25 313 0.0 1.6 0.00 0.00 0.00 36 1010.5
20260504214522 26 310 3.2 4.8 0.00 0.00 0.00 35 1010.5
20260504214018 25 309 0.0 0.0 0.00 0.00 0.00 34 1010.7
20260504213514 26 308 8.0 11.3 0.00 0.00 0.00 35 1010.7
20260504213012 26 309 1.6 1.6 0.00 0.00 0.00 34 1010.6
20260504212508 25 307 6.4 8.0 0.00 0.00 0.00 34 1010.7
20260504212005 26 307 6.4 11.3 0.00 0.00 0.00 35 1010.6
20260504211502 26 310 1.6 3.2 0.00 0.00 0.00 34 1010.5
20260504210959 26 311 1.6 3.2 0.00 0.00 0.00 36 1010.6
20260504210456 25 307 1.6 3.2 0.00 0.00 0.00 36 1010.6
20260504205953 26 310 14.5 16.1 0.00 0.00 0.00 34 1010.8
20260504205450 25 312 1.6 3.2 0.00 0.00 0.00 35 1010.6
20260504204948 26 313 0.0 0.0 0.00 0.00 0.00 36 1010.6
20260504204446 25 310 1.6 3.2 0.00 0.00 0.00 35 1010.9
20260504203945 25 309 0.0 1.6 0.00 0.00 0.00 36 1010.9
20260504203443 25 307 3.2 4.8 0.00 0.00 0.00 34 1011.0
20260504202938 25 305 6.4 9.7 0.00 0.00 0.00 37 1011.2
20260504202435 25 304 8.0 11.3 0.00 0.00 0.00 36 1011.0
20260504201932 25 308 1.6 3.2 0.00 0.00 0.00 35 1011.2
20260504201429 25 307 1.6 4.8 0.00 0.00 0.00 35 1011.2
20260504200927 25 307 4.8 4.8 0.00 0.00 0.00 35 1011.1
20260504200423 25 310 9.7 11.3 0.00 0.00 0.00 36 1011.3
20260504195920 25 310 0.0 1.6 0.00 0.00 0.00 35 1011.3
20260504195416 25 312 1.6 1.6 0.00 0.00 0.00 36 1011.5
20260504194913 25 309 1.6 3.2 0.00 0.00 0.00 35 1011.6
20260504194408 25 307 1.6 1.6 0.00 0.00 0.00 38 1011.5
20260504193905 25 306 4.8 9.7 0.00 0.00 0.00 36 1011.5
20260504193402 25 305 3.2 3.2 0.00 0.00 0.00 35 1011.5
20260504192901 25 302 3.2 3.2 0.00 0.00 0.00 36 1012.0
20260504192358 24 303 4.8 4.8 0.00 0.00 0.00 37 1011.8
20260504191856 24 303 3.2 4.8 0.00 0.00 0.00 37 1011.9
20260504191354 24 303 11.3 12.9 0.00 0.00 0.00 37 1011.9
20260504190849 24 303 11.3 12.9 0.00 0.00 0.00 36 1012.0
20260504190345 25 306 8.0 9.7 0.00 0.00 0.00 37 1012.1
20260504185842 24 305 3.2 4.8 0.00 0.00 0.00 36 1012.2
20260504185339 23 303 3.2 4.8 0.00 0.00 0.00 39 1012.3
20260504184835 23 303 9.7 12.9 0.00 0.00 0.00 38 1012.5
20260504184331 23 302 9.7 11.3 0.00 0.00 0.00 38 1012.5
20260504183827 23 303 8.0 12.9 0.00 0.00 0.00 38 1012.6
20260504183324 23 302 8.0 11.3 0.00 0.00 0.00 39 1012.7
20260504182822 23 302 14.5 20.9 0.00 0.00 0.00 38 1012.9
20260504182319 23 304 1.6 4.8 0.00 0.00 0.00 40 1012.9
20260504181816 23 305 4.8 8.0 0.00 0.00 0.00 39 1012.6
20260504181314 23 305 4.8 8.0 0.00 0.00 0.00 39 1012.8
20260504180813 23 306 4.8 8.0 0.00 0.00 0.00 38 1013.1
20260504180311 23 304 4.8 8.0 0.00 0.00 0.00 39 1013.2
20260504175808 22 303 8.0 11.3 0.00 0.00 0.00 38 1013.3
20260504175305 23 303 3.2 4.8 0.00 0.00 0.00 39 1013.2
20260504174803 23 304 3.2 3.2 0.00 0.00 0.00 37 1013.2
20260504174300 22 301 8.0 11.3 0.00 0.00 0.00 38 1013.1
20260504173757 22 300 9.7 14.5 0.00 0.00 0.00 38 1013.4
20260504173254 22 302 6.4 8.0 0.00 0.00 0.00 38 1013.3
20260504172750 22 300 3.2 4.8 0.00 0.00 0.00 37 1013.7
20260504172247 22 298 8.0 9.7 0.00 0.00 0.00 38 1013.5
20260504171743 22 299 4.8 8.0 0.00 0.00 0.00 37 1013.5
20260504171240 22 298 1.6 3.2 0.00 0.00 0.00 39 1013.8
20260504170737 22 295 3.2 4.8 0.00 0.00 0.00 38 1013.8
20260504170235 22 294 4.8 9.7 0.00 0.00 0.00 37 1013.8
20260504160153 22 139 3.2 4.8 0.00 0.00 0.00 38 1014.6
20260504151121 20 121 6.4 8.0 0.00 0.00 0.00 38 1014.6
20260504150618 20 121 0.0 1.6 0.00 0.00 0.00 41 1015.0
20260504150115 20 120 0.0 1.6 0.00 0.00 0.00 40 1014.8
20260504141044 17 124 6.4 9.7 0.00 0.00 0.00 51 1015.3
20260504140540 16 124 3.2 4.8 0.00 0.00 0.00 51 1015.4
20260504130504 14 124 8.0 9.7 0.00 0.00 0.00 57 1015.6
20260504110351 9 124 0.0 0.0 0.00 0.00 0.00 72 1016.3
20260504100309 10 124 0.0 0.0 0.00 0.00 0.00 71 1016.4
20260504081702 8 124 0.0 0.0 0.00 0.00 0.00 75 1016.3
20260504081159 8 124 0.0 0.0 0.00 0.00 0.00 76 1016.4
20260504080655 8 124 0.0 0.0 0.00 0.00 0.00 77 1016.2
20260504080152 8 124 0.0 0.0 0.00 0.00 0.00 76 1016.4
20260504070120 7 124 0.0 0.0 0.00 0.00 0.00 81 1016.5
20260504050508 6 124 0.0 0.0 0.00 0.00 0.00 80 1016.6
20260504050005 6 124 0.0 0.0 0.00 0.00 0.00 80 1016.7
20260504045501 5 124 0.0 0.0 0.00 0.00 0.00 79 1016.6
20260504044957 5 124 0.0 0.0 0.00 0.00 0.00 81 1016.6
20260504044455 5 124 0.0 0.0 0.00 0.00 0.00 82 1016.5
20260504043952 5 124 0.0 0.0 0.00 0.00 0.00 83 1016.5
20260504043449 5 124 0.0 0.0 0.00 0.00 0.00 82 1016.7
20260504042946 5 124 0.0 0.0 0.00 0.00 0.00 82 1016.7
20260504042443 5 124 0.0 0.0 0.00 0.00 0.00 81 1016.4
20260504041940 5 124 0.0 0.0 0.00 0.00 0.00 81 1016.5
20260504041436 5 124 0.0 0.0 0.00 0.00 0.00 81 1016.5
20260504040932 5 124 0.0 0.0 0.00 0.00 0.00 81 1016.5
20260504040430 5 124 0.0 0.0 0.00 0.00 0.00 81 1016.7
20260504035925 5 124 0.0 0.0 0.00 0.00 0.00 81 1016.6
20260504035423 5 124 0.0 0.0 0.00 0.00 0.00 81 1016.8
20260504034919 5 124 0.0 0.0 0.00 0.00 0.00 83 1016.6
20260504034417 5 124 0.0 0.0 0.00 0.00 0.00 82 1016.4
20260504033914 5 124 0.0 0.0 0.00 0.00 0.00 82 1016.5
20260504033412 5 124 0.0 0.0 0.00 0.00 0.00 82 1016.6
20260504032909 5 124 0.0 0.0 0.00 0.00 0.00 82 1016.5
20260504032405 5 124 0.0 0.0 0.00 0.00 0.00 82 1016.5
20260504031902 5 124 0.0 0.0 0.00 0.00 0.00 81 1016.3
20260504031359 5 124 0.0 0.0 0.00 0.00 0.00 80 1016.4
20260504030855 5 124 0.0 0.0 0.00 0.00 0.00 79 1016.3
20260504030353 5 124 0.0 0.0 0.00 0.00 0.00 79 1016.3
20260504025849 6 124 0.0 0.0 0.00 0.00 0.00 77 1016.3
20260504025346 6 124 0.0 0.0 0.00 0.00 0.00 76 1016.2
20260504024843 6 124 0.0 0.0 0.00 0.00 0.00 76 1016.2
20260504024339 6 124 0.0 0.0 0.00 0.00 0.00 76 1016.1
20260504023836 6 124 0.0 0.0 0.00 0.00 0.00 75 1016.2
20260504023333 6 124 0.0 0.0 0.00 0.00 0.00 75 1016.0
20260504022828 6 124 0.0 0.0 0.00 0.00 0.00 76 1016.0
20260504022326 6 124 0.0 0.0 0.00 0.00 0.00 75 1016.1
20260504021822 6 124 0.0 0.0 0.00 0.00 0.00 74 1016.2
20260504021320 6 124 0.0 0.0 0.00 0.00 0.00 73 1016.2
20260504020816 7 124 0.0 0.0 0.00 0.00 0.00 73 1016.1
20260504020313 7 124 0.0 0.0 0.00 0.00 0.00 72 1016.2
20260504015809 7 124 0.0 0.0 0.00 0.00 0.00 71 1015.9
20260504015305 7 124 0.0 0.0 0.00 0.00 0.00 69 1015.8
20260504014801 7 124 0.0 0.0 0.00 0.00 0.00 68 1016.0
20260504014258 7 124 0.0 0.0 0.00 0.00 0.00 67 1016.0
20260504013755 8 124 0.0 0.0 0.00 0.00 0.00 65 1016.0
20260504013253 8 124 0.0 0.0 0.00 0.00 0.00 65 1015.9
20260504012749 8 124 0.0 0.0 0.00 0.00 0.00 64 1015.8
20260504012247 8 124 0.0 0.0 0.00 0.00 0.00 64 1015.8
20260504011744 8 124 0.0 0.0 0.00 0.00 0.00 63 1015.7
20260504011241 8 124 0.0 0.0 0.00 0.00 0.00 62 1015.7
20260504010737 9 124 0.0 0.0 0.00 0.00 0.00 60 1015.7
20260504010232 10 124 0.0 0.0 0.00 0.00 0.00 57 1015.7
20260504005730 10 124 0.0 0.0 0.00 0.00 0.00 57 1015.9
20260504005227 10 124 0.0 0.0 0.00 0.00 0.00 58 1015.5
20260504004724 10 124 0.0 0.0 0.00 0.00 0.00 57 1015.7
20260504004221 10 124 0.0 0.0 0.00 0.00 0.00 55 1015.6
20260504003718 11 124 0.0 0.0 0.00 0.00 0.00 53 1015.5
20260504003215 11 124 0.0 0.0 0.00 0.00 0.00 51 1015.5
20260504002711 11 124 0.0 0.0 0.00 0.00 0.00 50 1015.5
20260504002208 12 124 0.0 0.0 0.00 0.00 0.00 49 1015.3
20260504001706 12 124 0.0 0.0 0.00 0.00 0.00 48 1015.1
20260504001203 12 124 0.0 0.0 0.00 0.00 0.00 46 1015.2
20260504000659 13 124 0.0 0.0 0.00 0.00 0.00 44 1015.2
20260504000157 13 124 0.0 0.0 0.00 0.00 0.00 41 1015.2
20260503235655 14 124 0.0 0.0 0.00 0.00 0.00 40 1015.1